BIROS

Last updated on Tue Oct 21 2025 00:02:31 GMT+0000 (Coordinated Universal Time)

1 41604U 16040F 25293.63177394 .00103580 00000+0 69807-3 0 9996 2 41604 97.0768 323.5874 0004655 58.0504 302.1214 15.74805733520337
UTC large
Height (km)
Speed (km/s)
/
Latitude / Longitude
Inclination (degrees)
Orbital Period (minutes)
Azimuth
Elevation
Range (km)
Doppler Factor

Next 0 passes for location: London (51.5072 / 0.1276)

Sorry there are no passes over London.